Millville, NJ

10:08 AM EDT on March 30, 2017 (GMT -0400)
Millville Municipal

Weather History for KMIV - November, 2012

Change the Weather History Date:

Sunday, November 11, 2012

  Actual Average Record
Temperature  
Mean Temperature 50 °F -  
Max Temperature 64 °F 56 °F 73 °F (1985)
Min Temperature 35 °F 38 °F 20 °F (1961)
Degree Days  
Heating Degree Days 16    
Moisture  
Dew Point 42 °F    
Average Humidity 87    
Maximum Humidity 100    
Minimum Humidity 54    
Precipitation  
Precipitation 0.00 in - - ()
Sea Level Pressure  
Sea Level Pressure 30.44 in    
Wind  
Wind Speed 1 mph (South)    
Max Wind Speed 8 mph    
Max Gust Speed -    
Visibility 5 miles    
Events Fog    
Averages and records for this station are not official NWS values.
T = Trace of Precipitation, MM = Missing Value Source: NWS Daily Summary

Daily Weather History Graph

Daily Weather History Graph

Search for Another Location

Airport or City:

Trip Planner

Search our weather history database for the weather conditions in past years. The results will help you decide how hot, cold, wet, or windy it might be!

Date:

Astronomy

Nov. 11, 2012 Rise Set
Actual Time 6:40 AM EST 4:48 PM EST
Civil Twilight 6:11 AM EST 5:16 PM EST
Nautical Twilight 5:39 AM EST 5:48 PM EST
Astronomical Twilight 5:07 AM EST 6:20 PM EST
Moon 3:51 AM EST (11/11) 3:09 PM EST (11/11)
Length of Visible Light 11h 05m
Length of Day
10h 08m
Waning Crescent, 7% of the Moon is Illuminated
Nov 11
Waning Crescent
Nov 13
New
Nov 20
First Quarter
Nov 28
Full
Dec 6
Last Quarter

Hourly Weather History & Observations

Time (EST) Temp. Dew Point Humidity Pressure Visibility Wind Dir Wind Speed Gust Speed Precip Events Conditions
12:33 AM 39.2 °F 37.4 °F 93% 30.41 in 1.5 mi Calm Calm - N/A   Partly Cloudy
12:39 AM 39.2 °F 37.4 °F 93% 30.41 in 0.2 mi Calm Calm - N/A Fog Fog
12:54 AM 39.0 °F 37.9 °F 96% 30.41 in 0.2 mi Calm Calm - N/A Fog Fog
1:29 AM 37.4 °F 35.6 °F 93% 30.41 in 0.5 mi Calm Calm - N/A Fog Fog
1:42 AM 35.6 °F 35.6 °F 100% 30.41 in 0.2 mi Calm Calm - N/A Fog Fog
1:47 AM 35.6 °F 35.6 °F 100% 30.41 in 1.0 mi Calm Calm - N/A   Mist
1:52 AM 37.4 °F 35.6 °F 93% 30.41 in 3.0 mi Calm Calm - N/A   Overcast
1:54 AM 37.0 °F 36.0 °F 96% 30.41 in 4.0 mi Calm Calm - N/A   Overcast
2:26 AM 37.4 °F 37.4 °F 100% 30.41 in 1.8 mi Calm Calm - N/A   Mostly Cloudy
2:31 AM 37.4 °F 37.4 °F 100% 30.41 in 0.2 mi Calm Calm - N/A Fog Fog
2:54 AM 37.0 °F 37.0 °F 100% 30.40 in 0.8 mi Calm Calm - N/A   Mist
2:58 AM 37.4 °F 37.4 °F 100% 30.41 in 1.2 mi Calm Calm - N/A   Scattered Clouds
3:04 AM 37.4 °F 37.4 °F 100% 30.41 in 3.0 mi Calm Calm - N/A   Partly Cloudy
3:22 AM 37.4 °F 37.4 °F 100% 30.40 in 2.5 mi Calm Calm - N/A   Clear
3:35 AM 42.8 °F 39.2 °F 87% 30.41 in 4.0 mi Calm Calm - N/A   Clear
3:54 AM 46.0 °F 45.0 °F 96% 30.41 in 5.0 mi Calm Calm - N/A   Clear
4:54 AM 46.9 °F 46.0 °F 97% 30.43 in 4.0 mi Calm Calm - N/A   Clear
5:35 AM 44.6 °F 42.8 °F 93% 30.44 in 1.8 mi Calm Calm - N/A   Clear
5:54 AM 44.1 °F 43.0 °F 96% 30.45 in 2.0 mi Calm Calm - N/A   Clear
6:03 AM 42.8 °F 41.0 °F 93% 30.45 in 1.0 mi Calm Calm - N/A   Clear
6:12 AM 39.2 °F 39.2 °F 100% 30.45 in 0.5 mi Calm Calm - N/A Fog Fog
6:41 AM 41.0 °F 39.2 °F 93% 30.46 in 0.2 mi Calm Calm - N/A Fog Fog
6:54 AM 42.1 °F 41.0 °F 96% 30.47 in 0.5 mi Calm Calm - N/A Fog Fog
7:14 AM 39.2 °F 39.2 °F 100% 30.47 in 1.8 mi Calm Calm - N/A   Clear
7:22 AM 41.0 °F 39.2 °F 93% 30.48 in 2.0 mi Calm Calm - N/A   Clear
7:49 AM 50.0 °F 48.2 °F 94% 30.48 in 3.0 mi Variable 3.5 mph - N/A   Clear
7:54 AM 51.1 °F 48.9 °F 92% 30.48 in 4.0 mi Calm Calm - N/A   Clear
8:54 AM 55.9 °F 48.9 °F 77% 30.49 in 10.0 mi Variable 6.9 mph - N/A   Clear
10:54 AM 61.0 °F 48.0 °F 62% 30.48 in 10.0 mi SSW 8.1 mph - N/A   Clear
11:54 AM 63.0 °F 48.0 °F 58% 30.46 in 10.0 mi Variable 5.8 mph - N/A   Clear
1:54 PM 64.9 °F 48.0 °F 54% 30.44 in 10.0 mi Variable 5.8 mph - N/A   Clear
2:54 PM 64.0 °F 48.9 °F 58% 30.43 in 10.0 mi Variable 4.6 mph - N/A   Clear
3:54 PM 61.0 °F 46.9 °F 60% 30.45 in 10.0 mi South 5.8 mph - N/A   Clear
4:54 PM 55.9 °F 44.1 °F 64% 30.46 in 10.0 mi SSE 5.8 mph - N/A   Clear
5:54 PM 54.0 °F 44.1 °F 69% 30.46 in 10.0 mi South 4.6 mph - N/A   Clear
6:54 PM 54.0 °F 45.0 °F 72% 30.47 in 10.0 mi Variable 4.6 mph - N/A   Clear
7:54 PM 54.0 °F 45.0 °F 72% 30.48 in 10.0 mi Variable 3.5 mph - N/A   Clear
8:54 PM 54.0 °F 46.9 °F 77% 30.48 in 10.0 mi South 5.8 mph - N/A   Clear
9:54 PM 53.1 °F 46.9 °F 80% 30.48 in 10.0 mi Calm Calm - N/A   Clear
10:54 PM 53.1 °F 46.9 °F 80% 30.47 in 10.0 mi South 4.6 mph - N/A   Clear
11:54 PM 51.1 °F 46.9 °F 86% 30.46 in 9.0 mi Calm Calm - N/A   Clear